Weather History for Evergreen, AL

Change the Weather History Date:

Friday, March 8, 2013

  Actual Average (KPRN) Record (KPRN)
Temperature  
Mean Temperature 52 °F -  
Max Temperature 73 °F 68 °F 84 °F (1964)
Min Temperature 32 °F 42 °F 25 °F (1971)
Degree Days  
Heating Degree Days 12    
Growing Degree Days 2 (Base 50)    
Moisture  
Dew Point 33 °F    
Average Humidity 59    
Maximum Humidity 89    
Minimum Humidity 17    
Precipitation  
Precipitation 0.00 in - - ()
Sea Level Pressure  
Sea Level Pressure 30.26 in    
Wind  
Wind Speed 1 mph (NNE)    
Max Wind Speed 7 mph    
Max Gust Speed -    
Visibility 9 miles    
Events      
Averages and records for this station are not official NWS values.
T = Trace of Precipitation, MM = Missing Value Source: NWS Daily Summary

Daily Weather History Graph

Daily Weather History Graph

Search for Another Location

Airport:

Trip Planner

Search our weather history database for the weather conditions in past years. The results will help you decide how hot, cold, wet, or windy it might be!

Date:

Astronomy

Mar. 08, 2013 Rise Set
Actual Time 6:06 AM CST 5:51 PM CST
Civil Twilight 5:42 AM CST 6:15 PM CST
Nautical Twilight 5:14 AM CST 6:44 PM CST
Astronomical Twilight 4:46 AM CST 7:12 PM CST
Moon 3:40 AM CST (3/8) 2:55 PM CST (3/8)
Length of Visible Light 12h 33m
Length of Day
11h 45m
Waning Crescent, 11% of the Moon is Illuminated
Mar 8
Waning Crescent
Mar 11
New
Mar 19
First Quarter
Mar 27
Full
Apr 2
Last Quarter

Hourly Weather History & Observations

Time (CST) Temp. Dew Point Humidity Pressure Visibility Wind Dir Wind Speed Gust Speed Precip Events Conditions
12:53 AM 37.0 °F 33.1 °F 86% 30.26 in 7.0 mi Calm Calm - N/A   Clear
1:53 AM 36.0 °F 32.0 °F 86% 30.26 in 7.0 mi Calm Calm - N/A   Clear
2:53 AM 35.1 °F 32.0 °F 89% 30.26 in 6.0 mi Calm Calm - N/A   Clear
3:53 AM 34.0 °F 30.9 °F 89% 30.27 in 5.0 mi Calm Calm - N/A   Clear
4:53 AM 33.1 °F 30.0 °F 89% 30.28 in 6.0 mi Calm Calm - N/A   Clear
5:53 AM 32.0 °F 28.9 °F 88% 30.29 in 5.0 mi Calm Calm - N/A   Clear
6:53 AM 34.0 °F 30.9 °F 89% 30.31 in 5.0 mi Calm Calm - N/A   Clear
7:53 AM 46.0 °F 36.0 °F 68% 30.33 in 10.0 mi Calm Calm - N/A   Clear
8:53 AM 53.1 °F 36.0 °F 52% 30.34 in 10.0 mi NE 4.6 mph - N/A   Clear
9:53 AM 59.0 °F 34.0 °F 39% 30.32 in 10.0 mi NNE 6.9 mph - 0.00 in   Clear
10:53 AM 63.0 °F 35.1 °F 35% 30.31 in 10.0 mi Calm Calm - N/A   Clear
11:53 AM 66.0 °F 28.9 °F 25% 30.28 in 10.0 mi Variable 3.5 mph - N/A   Clear
12:53 PM 69.1 °F 28.9 °F 22% 30.25 in 10.0 mi Calm Calm - N/A   Clear
1:53 PM 71.1 °F 28.0 °F 20% 30.23 in 10.0 mi North 6.9 mph - N/A   Clear
2:53 PM 73.0 °F 27.0 °F 18% 30.21 in 10.0 mi Variable 6.9 mph - N/A   Clear
3:53 PM 72.0 °F 24.1 °F 17% 30.21 in 10.0 mi NE 4.6 mph - N/A   Clear
4:53 PM 70.0 °F 28.0 °F 21% 30.21 in 10.0 mi North 4.6 mph - N/A   Clear
5:53 PM 62.1 °F 34.0 °F 35% 30.22 in 8.0 mi Calm Calm - N/A   Clear
6:53 PM 55.0 °F 41.0 °F 59% 30.23 in 10.0 mi Calm Calm - N/A   Clear
7:53 PM 51.1 °F 41.0 °F 68% 30.23 in 10.0 mi Calm Calm - N/A   Clear
8:53 PM 48.0 °F 41.0 °F 77% 30.24 in 10.0 mi Calm Calm - N/A   Clear
9:53 PM 46.9 °F 41.0 °F 80% 30.23 in 10.0 mi Calm Calm - N/A   Clear
10:53 PM 45.0 °F 39.0 °F 80% 30.22 in 10.0 mi Calm Calm - N/A   Clear
11:53 PM 44.1 °F 39.0 °F 82% 30.21 in 9.0 mi Calm Calm - N/A   Clear